Precipitable_Water
0.42 0.43 0.45 0.46 0.46 0.44 0.42 0.39 0.34 0.31 0.29 0.27 0.25 0.22 0.20 0.20 0.20 0.19 0.19 0.18 0.17 0.17 0.17 0.17 0.16 0.15 0.15 0.16 0.15 0.15 0.15 0.15 0.15 0.15 0.14 0.14 0.13 0.12 0.12 0.11 0.10 0.09 0.08 0.08 0.09 0.07 0.07 0.08 0.09 0.09 0.10 0.11 0.13 0.14 0.15 0.17 0.17 0.18 0.19 0.18 0.18 0.17 0.16
0.42 0.43 0.44 0.45 0.44 0.43 0.42 0.39 0.35 0.32 0.30 0.28 0.25 0.22 0.21 0.20 0.20 0.20 0.19 0.18 0.17 0.17 0.17 0.17 0.16 0.16 0.16 0.17 0.16 0.16 0.16 0.15 0.15 0.14 0.13 0.13 0.12 0.12 0.11 0.11 0.10 0.09 0.08 0.07 0.07 0.07 0.07 0.07 0.08 0.08 0.10 0.11 0.12 0.14 0.15 0.16 0.17 0.18 0.19 0.19 0.18 0.17 0.16
0.43 0.43 0.43 0.43 0.44 0.43 0.41 0.39 0.36 0.33 0.30 0.28 0.25 0.23 0.21 0.20 0.20 0.20 0.19 0.19 0.18 0.17 0.18 0.17 0.17 0.16 0.17 0.17 0.17 0.16 0.15 0.15 0.14 0.14 0.13 0.13 0.13 0.12 0.11 0.12 0.11 0.10 0.08 0.07 0.06 0.07 0.07 0.07 0.08 0.09 0.09 0.11 0.13 0.14 0.15 0.15 0.16 0.17 0.18 0.19 0.18 0.17 0.17
0.44 0.43 0.43 0.43 0.43 0.42 0.41 0.39 0.36 0.33 0.31 0.28 0.26 0.23 0.22 0.21 0.21 0.20 0.20 0.20 0.19 0.18 0.18 0.18 0.17 0.17 0.17 0.17 0.16 0.16 0.15 0.15 0.15 0.14 0.13 0.13 0.13 0.13 0.12 0.12 0.12 0.10 0.09 0.07 0.07 0.06 0.07 0.07 0.07 0.08 0.10 0.12 0.13 0.14 0.15 0.16 0.16 0.17 0.17 0.17 0.17 0.17 0.16
0.42 0.42 0.42 0.42 0.42 0.42 0.41 0.39 0.37 0.33 0.31 0.28 0.26 0.24 0.23 0.22 0.21 0.21 0.21 0.21 0.19 0.19 0.19 0.18 0.17 0.17 0.17 0.17 0.16 0.16 0.16 0.15 0.14 0.14 0.14 0.13 0.12 0.12 0.12 0.12 0.11 0.09 0.09 0.08 0.07 0.07 0.07 0.08 0.08 0.09 0.10 0.12 0.12 0.13 0.14 0.14 0.15 0.16 0.16 0.17 0.17 0.17 0.17
0.40 0.41 0.40 0.41 0.41 0.40 0.40 0.39 0.37 0.34 0.31 0.28 0.26 0.25 0.24 0.23 0.22 0.23 0.23 0.21 0.21 0.20 0.19 0.19 0.18 0.17 0.17 0.17 0.16 0.16 0.16 0.15 0.14 0.13 0.13 0.13 0.13 0.13 0.12 0.11 0.09 0.09 0.08 0.08 0.08 0.07 0.07 0.07 0.08 0.09 0.10 0.12 0.13 0.12 0.11 0.13 0.14 0.15 0.16 0.16 0.16 0.17 0.17
0.33 0.36 0.39 0.40 0.40 0.41 0.40 0.39 0.37 0.34 0.31 0.28 0.26 0.25 0.25 0.24 0.24 0.25 0.24 0.22 0.21 0.21 0.20 0.20 0.19 0.18 0.17 0.17 0.17 0.16 0.16 0.15 0.13 0.13 0.14 0.14 0.13 0.12 0.11 0.10 0.09 0.09 0.09 0.08 0.08 0.07 0.08 0.08 0.09 0.10 0.10 0.12 0.12 0.12 0.12 0.12 0.12 0.13 0.15 0.16 0.16 0.16 0.17
0.30 0.32 0.35 0.38 0.39 0.39 0.40 0.39 0.38 0.35 0.32 0.30 0.28 0.26 0.25 0.25 0.25 0.24 0.23 0.22 0.22 0.21 0.21 0.20 0.19 0.18 0.17 0.17 0.16 0.16 0.16 0.14 0.14 0.15 0.14 0.14 0.12 0.11 0.11 0.11 0.10 0.09 0.09 0.08 0.07 0.07 0.07 0.08 0.09 0.10 0.11 0.11 0.11 0.11 0.11 0.12 0.12 0.12 0.13 0.15 0.16 0.16 0.15
0.29 0.30 0.32 0.34 0.38 0.38 0.38 0.38 0.37 0.35 0.33 0.30 0.28 0.27 0.26 0.26 0.25 0.24 0.23 0.22 0.22 0.22 0.21 0.20 0.19 0.18 0.17 0.17 0.16 0.16 0.16 0.16 0.17 0.16 0.14 0.14 0.14 0.13 0.12 0.11 0.10 0.09 0.08 0.08 0.08 0.07 0.08 0.09 0.09 0.09 0.09 0.09 0.09 0.10 0.10 0.11 0.13 0.13 0.14 0.15 0.15 0.16 0.17
0.29 0.29 0.30 0.32 0.35 0.38 0.39 0.37 0.37 0.36 0.34 0.32 0.30 0.28 0.27 0.26 0.26 0.25 0.23 0.22 0.22 0.21 0.21 0.20 0.20 0.18 0.18 0.17 0.16 0.17 0.18 0.18 0.18 0.18 0.17 0.15 0.14 0.13 0.12 0.11 0.10 0.09 0.09 0.08 0.07 0.07 0.08 0.08 0.08 0.09 0.09 0.09 0.09 0.10 0.11 0.11 0.12 0.12 0.14 0.15 0.15 0.15 0.17
0.29 0.29 0.28 0.29 0.32 0.34 0.37 0.37 0.37 0.36 0.34 0.33 0.31 0.29 0.28 0.27 0.27 0.25 0.23 0.22 0.22 0.21 0.21 0.21 0.20 0.18 0.17 0.16 0.17 0.18 0.18 0.18 0.17 0.16 0.15 0.14 0.13 0.13 0.12 0.11 0.10 0.09 0.09 0.08 0.08 0.08 0.09 0.08 0.08 0.09 0.09 0.09 0.09 0.10 0.11 0.11 0.13 0.14 0.14 0.15 0.14 0.14 0.16
0.29 0.29 0.29 0.28 0.28 0.31 0.33 0.35 0.36 0.36 0.35 0.34 0.32 0.32 0.30 0.28 0.27 0.26 0.23 0.22 0.22 0.23 0.22 0.20 0.19 0.18 0.17 0.16 0.17 0.17 0.17 0.16 0.15 0.14 0.13 0.13 0.13 0.12 0.12 0.12 0.11 0.10 0.09 0.09 0.08 0.08 0.08 0.08 0.08 0.08 0.09 0.09 0.10 0.10 0.11 0.13 0.14 0.15 0.15 0.15 0.15 0.15 0.14
0.30 0.30 0.29 0.28 0.27 0.28 0.30 0.32 0.35 0.35 0.35 0.34 0.33 0.33 0.32 0.30 0.28 0.26 0.23 0.23 0.24 0.23 0.22 0.20 0.18 0.17 0.17 0.18 0.18 0.17 0.16 0.15 0.14 0.13 0.13 0.12 0.12 0.11 0.11 0.10 0.10 0.10 0.10 0.11 0.10 0.08 0.08 0.07 0.08 0.08 0.09 0.10 0.10 0.12 0.12 0.13 0.14 0.15 0.16 0.16 0.15 0.14 0.14
0.30 0.31 0.29 0.28 0.27 0.27 0.28 0.30 0.34 0.35 0.35 0.34 0.33 0.33 0.33 0.32 0.29 0.27 0.25 0.24 0.24 0.23 0.21 0.20 0.18 0.17 0.17 0.17 0.16 0.16 0.16 0.14 0.13 0.12 0.11 0.10 0.10 0.10 0.09 0.10 0.10 0.10 0.11 0.10 0.09 0.08 0.07 0.08 0.09 0.09 0.10 0.11 0.12 0.12 0.13 0.14 0.15 0.16 0.16 0.15 0.14 0.15 0.15
0.30 0.31 0.30 0.29 0.28 0.27 0.27 0.29 0.33 0.35 0.35 0.34 0.34 0.33 0.33 0.32 0.31 0.28 0.26 0.26 0.25 0.24 0.23 0.21 0.19 0.18 0.17 0.16 0.16 0.16 0.15 0.14 0.13 0.12 0.11 0.10 0.10 0.10 0.10 0.10 0.10 0.10 0.10 0.09 0.09 0.09 0.09 0.10 0.11 0.11 0.12 0.12 0.13 0.14 0.15 0.16 0.16 0.17 0.17 0.16 0.16 0.15 0.14
0.31 0.31 0.31 0.30 0.28 0.27 0.27 0.29 0.32 0.34 0.35 0.34 0.34 0.33 0.33 0.32 0.31 0.28 0.26 0.26 0.27 0.26 0.24 0.21 0.19 0.18 0.17 0.16 0.16 0.15 0.15 0.14 0.14 0.12 0.11 0.11 0.10 0.10 0.10 0.10 0.11 0.11 0.10 0.10 0.10 0.10 0.11 0.11 0.11 0.11 0.11 0.12 0.14 0.15 0.16 0.17 0.18 0.18 0.17 0.15 0.14 0.13 0.12
0.32 0.31 0.31 0.30 0.28 0.27 0.27 0.29 0.32 0.34 0.34 0.34 0.34 0.33 0.32 0.31 0.30 0.29 0.27 0.27 0.28 0.26 0.23 0.21 0.20 0.18 0.17 0.16 0.15 0.15 0.15 0.14 0.14 0.13 0.12 0.12 0.11 0.10 0.10 0.10 0.10 0.10 0.09 0.10 0.10 0.10 0.10 0.10 0.10 0.10 0.11 0.12 0.14 0.14 0.17 0.18 0.17 0.16 0.16 0.14 0.13 0.11 0.09
0.31 0.32 0.31 0.30 0.29 0.28 0.27 0.28 0.31 0.32 0.33 0.33 0.33 0.32 0.31 0.30 0.29 0.28 0.27 0.27 0.26 0.25 0.23 0.22 0.20 0.18 0.17 0.16 0.16 0.16 0.14 0.14 0.14 0.13 0.12 0.11 0.11 0.10 0.09 0.09 0.09 0.09 0.09 0.09 0.09 0.08 0.08 0.08 0.08 0.09 0.10 0.11 0.13 0.15 0.18 0.18 0.16 0.17 0.16 0.14 0.12 0.10 0.08
0.32 0.32 0.31 0.31 0.30 0.29 0.28 0.28 0.29 0.31 0.32 0.32 0.32 0.32 0.31 0.30 0.28 0.27 0.26 0.25 0.24 0.24 0.23 0.21 0.19 0.18 0.17 0.17 0.16 0.16 0.15 0.14 0.14 0.12 0.12 0.12 0.11 0.10 0.09 0.08 0.09 0.09 0.08 0.07 0.07 0.06 0.06 0.07 0.08 0.08 0.09 0.10 0.13 0.16 0.19 0.18 0.18 0.17 0.16 0.14 0.12 0.09 0.08
0.32 0.31 0.31 0.31 0.30 0.29 0.29 0.28 0.28 0.28 0.29 0.30 0.31 0.31 0.30 0.29 0.27 0.25 0.24 0.24 0.24 0.23 0.22 0.21 0.18 0.17 0.17 0.17 0.16 0.15 0.14 0.13 0.13 0.13 0.14 0.13 0.11 0.09 0.08 0.10 0.09 0.09 0.08 0.07 0.06 0.06 0.06 0.07 0.08 0.08 0.09 0.11 0.13 0.16 0.18 0.19 0.18 0.17 0.16 0.14 0.12 0.09 0.08
0.33 0.31 0.30 0.30 0.30 0.30 0.29 0.29 0.29 0.29 0.29 0.28 0.29 0.29 0.29 0.28 0.27 0.26 0.24 0.24 0.23 0.23 0.21 0.19 0.18 0.17 0.16 0.16 0.15 0.14 0.14 0.13 0.14 0.15 0.13 0.11 0.10 0.09 0.10 0.10 0.09 0.08 0.07 0.06 0.06 0.06 0.07 0.07 0.08 0.08 0.09 0.11 0.13 0.16 0.18 0.18 0.18 0.18 0.17 0.15 0.12 0.09 0.08
0.32 0.31 0.30 0.29 0.29 0.29 0.29 0.29 0.29 0.29 0.29 0.29 0.28 0.28 0.27 0.27 0.27 0.26 0.25 0.24 0.23 0.23 0.21 0.18 0.17 0.16 0.16 0.15 0.15 0.14 0.13 0.14 0.14 0.13 0.12 0.10 0.12 0.11 0.10 0.09 0.08 0.07 0.06 0.06 0.06 0.06 0.06 0.07 0.07 0.07 0.08 0.10 0.13 0.16 0.18 0.18 0.18 0.18 0.17 0.17 0.14 0.10 0.09
0.32 0.31 0.30 0.29 0.28 0.28 0.28 0.28 0.29 0.29 0.28 0.29 0.29 0.28 0.27 0.27 0.27 0.27 0.26 0.25 0.24 0.22 0.20 0.19 0.17 0.17 0.16 0.15 0.14 0.14 0.15 0.14 0.13 0.12 0.11 0.12 0.11 0.10 0.09 0.08 0.07 0.07 0.06 0.06 0.06 0.06 0.06 0.06 0.07 0.07 0.08 0.10 0.12 0.16 0.18 0.18 0.19 0.18 0.18 0.17 0.15 0.12 0.11
0.31 0.31 0.30 0.29 0.28 0.28 0.27 0.26 0.27 0.28 0.29 0.28 0.28 0.29 0.28 0.27 0.28 0.28 0.27 0.26 0.24 0.23 0.21 0.18 0.17 0.16 0.16 0.14 0.15 0.15 0.14 0.12 0.12 0.12 0.12 0.11 0.10 0.09 0.08 0.07 0.07 0.07 0.06 0.06 0.05 0.05 0.05 0.06 0.06 0.07 0.08 0.09 0.12 0.15 0.17 0.18 0.19 0.18 0.18 0.18 0.17 0.14 0.12
0.31 0.30 0.30 0.29 0.29 0.28 0.27 0.26 0.26 0.27 0.28 0.28 0.28 0.28 0.28 0.27 0.27 0.28 0.28 0.26 0.25 0.24 0.21 0.19 0.18 0.17 0.16 0.16 0.15 0.13 0.12 0.11 0.11 0.11 0.11 0.10 0.09 0.08 0.08 0.07 0.07 0.06 0.06 0.05 0.05 0.05 0.05 0.05 0.06 0.07 0.08 0.09 0.12 0.15 0.17 0.18 0.19 0.19 0.19 0.19 0.18 0.17 0.13
0.30 0.30 0.29 0.29 0.29 0.28 0.27 0.27 0.26 0.26 0.27 0.28 0.28 0.28 0.28 0.28 0.28 0.28 0.28 0.26 0.25 0.23 0.21 0.20 0.18 0.17 0.16 0.15 0.13 0.11 0.11 0.10 0.10 0.11 0.10 0.09 0.09 0.08 0.07 0.07 0.07 0.06 0.06 0.05 0.05 0.05 0.04 0.05 0.05 0.06 0.07 0.09 0.11 0.14 0.16 0.18 0.18 0.18 0.18 0.18 0.18 0.17 0.16
0.30 0.29 0.29 0.29 0.29 0.28 0.27 0.26 0.25 0.25 0.26 0.27 0.27 0.27 0.27 0.27 0.28 0.28 0.27 0.26 0.25 0.24 0.21 0.19 0.18 0.16 0.15 0.13 0.13 0.12 0.11 0.10 0.10 0.09 0.09 0.09 0.08 0.08 0.08 0.07 0.07 0.06 0.06 0.05 0.05 0.05 0.05 0.05 0.05 0.06 0.07 0.08 0.10 0.13 0.16 0.17 0.18 0.18 0.18 0.18 0.18 0.17 0.17
0.29 0.28 0.29 0.29 0.29 0.27 0.26 0.27 0.26 0.25 0.25 0.25 0.26 0.27 0.26 0.26 0.26 0.27 0.26 0.25 0.24 0.23 0.20 0.18 0.17 0.15 0.14 0.12 0.11 0.10 0.10 0.09 0.09 0.09 0.09 0.08 0.08 0.08 0.08 0.08 0.08 0.07 0.06 0.06 0.06 0.05 0.05 0.05 0.05 0.05 0.06 0.07 0.09 0.11 0.14 0.17 0.18 0.17 0.18 0.18 0.18 0.17 0.17
0.30 0.30 0.30 0.29 0.28 0.26 0.26 0.26 0.26 0.26 0.26 0.26 0.26 0.26 0.26 0.25 0.25 0.26 0.25 0.25 0.24 0.21 0.19 0.17 0.15 0.13 0.12 0.11 0.10 0.10 0.09 0.09 0.09 0.09 0.09 0.09 0.08 0.08 0.08 0.08 0.07 0.07 0.06 0.06 0.06 0.06 0.05 0.05 0.05 0.04 0.05 0.06 0.07 0.09 0.12 0.15 0.17 0.18 0.18 0.18 0.18 0.17 0.17
0.31 0.30 0.29 0.28 0.28 0.28 0.27 0.26 0.26 0.26 0.27 0.27 0.27 0.27 0.27 0.26 0.25 0.26 0.25 0.25 0.24 0.21 0.18 0.15 0.14 0.12 0.11 0.10 0.10 0.09 0.09 0.09 0.09 0.09 0.08 0.08 0.08 0.08 0.08 0.08 0.08 0.07 0.07 0.07 0.06 0.06 0.06 0.05 0.05 0.05 0.05 0.05 0.06 0.07 0.10 0.13 0.16 0.17 0.18 0.18 0.18 0.17 0.17
0.32 0.32 0.31 0.29 0.28 0.29 0.30 0.29 0.28 0.27 0.27 0.27 0.27 0.27 0.27 0.27 0.26 0.26 0.25 0.24 0.22 0.19 0.17 0.15 0.13 0.12 0.11 0.10 0.10 0.10 0.10 0.09 0.09 0.09 0.08 0.08 0.08 0.08 0.08 0.08 0.08 0.07 0.07 0.07 0.07 0.06 0.06 0.06 0.05 0.05 0.05 0.05 0.05 0.06 0.08 0.10 0.13 0.16 0.17 0.18 0.18 0.18 0.17
0.31 0.31 0.30 0.30 0.29 0.28 0.28 0.29 0.28 0.28 0.27 0.27 0.27 0.27 0.27 0.27 0.26 0.26 0.25 0.24 0.21 0.18 0.16 0.14 0.13 0.11 0.11 0.10 0.10 0.10 0.10 0.09 0.09 0.09 0.09 0.08 0.08 0.08 0.08 0.08 0.08 0.08 0.07 0.07 0.07 0.06 0.06 0.06 0.06 0.05 0.05 0.05 0.05 0.06 0.06 0.08 0.10 0.13 0.15 0.17 0.18 0.18 0.18
0.30 0.30 0.30 0.29 0.29 0.29 0.28 0.28 0.28 0.28 0.27 0.27 0.27 0.27 0.27 0.27 0.26 0.26 0.25 0.24 0.20 0.17 0.15 0.14 0.13 0.11 0.11 0.10 0.10 0.10 0.10 0.09 0.09 0.09 0.09 0.09 0.08 0.08 0.08 0.08 0.08 0.08 0.07 0.07 0.07 0.07 0.06 0.06 0.06 0.06 0.05 0.05 0.05 0.05 0.06 0.07 0.08 0.09 0.12 0.15 0.17 0.17 0.18
0.28 0.29 0.30 0.30 0.29 0.29 0.29 0.28 0.28 0.28 0.28 0.27 0.27 0.27 0.27 0.26 0.26 0.26 0.25 0.22 0.19 0.16 0.14 0.13 0.12 0.11 0.11 0.11 0.11 0.10 0.10 0.10 0.09 0.09 0.09 0.09 0.09 0.09 0.09 0.09 0.09 0.08 0.08 0.07 0.07 0.07 0.06 0.06 0.06 0.06 0.06 0.05 0.05 0.05 0.06 0.06 0.07 0.08 0.09 0.11 0.14 0.16 0.17
0.27 0.28 0.30 0.30 0.29 0.29 0.30 0.29 0.28 0.28 0.27 0.27 0.27 0.27 0.27 0.26 0.25 0.23 0.23 0.21 0.18 0.16 0.14 0.13 0.12 0.11 0.11 0.11 0.11 0.10 0.10 0.10 0.09 0.09 0.09 0.09 0.09 0.09 0.09 0.09 0.08 0.08 0.08 0.07 0.07 0.07 0.06 0.06 0.06 0.06 0.05 0.05 0.05 0.05 0.05 0.06 0.06 0.07 0.08 0.09 0.10 0.13 0.15
0.27 0.27 0.29 0.30 0.30 0.30 0.30 0.29 0.28 0.28 0.28 0.27 0.27 0.27 0.27 0.24 0.23 0.22 0.21 0.20 0.18 0.15 0.14 0.13 0.12 0.12 0.11 0.11 0.11 0.11 0.10 0.10 0.10 0.09 0.09 0.09 0.09 0.09 0.09 0.09 0.09 0.08 0.08 0.08 0.07 0.07 0.07 0.06 0.06 0.06 0.06 0.05 0.05 0.05 0.05 0.06 0.06 0.07 0.07 0.08 0.09 0.10 0.12
Wind_Speed
32 32 33 33 33 32 32 32 33 33 33 32 31 30 29 29 29 29 29 29 29 29 29 29 29 30 30 30 30 31 32 32 33 34 35 37 38 38 39 39 40 41 42 42 41 42 41 41 40 39 37 35 33 32 32 31 31 31 30 28 27 26 27
32 32 33 34 33 32 32 32 32 33 33 32 32 31 30 30 30 30 30 29 29 29 29 29 29 30 30 30 30 31 32 33 34 35 36 37 38 39 39 40 40 41 42 43 42 42 41 40 39 38 36 34 33 32 32 32 31 31 30 28 27 26 26
33 32 33 34 34 33 32 32 32 33 33 33 32 31 31 30 30 30 30 30 30 29 29 29 30 30 30 30 31 32 33 34 34 35 37 38 38 39 39 40 41 42 42 43 42 42 41 39 38 37 35 33 32 31 31 31 31 30 30 29 27 26 26
33 32 32 33 34 33 33 32 32 32 33 33 33 32 31 31 31 30 30 30 30 30 30 29 30 30 30 30 31 32 33 33 34 35 36 38 38 39 39 40 41 41 42 42 42 42 40 39 38 36 34 32 31 30 30 30 31 30 29 29 27 26 26
33 33 33 33 34 33 33 32 32 33 33 34 34 33 32 31 31 31 31 30 30 30 30 30 30 30 30 30 31 32 33 33 34 35 36 37 38 38 39 40 40 41 41 41 42 42 40 39 37 34 32 30 29 29 30 31 31 30 29 29 27 26 26
34 34 34 34 34 34 33 32 32 33 34 34 34 33 32 32 32 32 31 31 30 31 31 31 31 31 30 31 31 32 33 33 34 35 36 37 38 38 39 40 40 40 40 40 41 41 39 37 35 33 30 29 28 29 31 31 31 30 29 28 28 28 27
35 35 35 34 35 35 34 33 32 33 34 34 34 33 33 32 32 32 31 31 30 31 31 31 31 31 31 31 31 32 33 33 33 34 36 37 38 38 39 39 39 40 40 40 40 39 37 36 33 31 29 29 29 30 30 30 30 30 29 29 29 30 29
36 36 35 35 35 35 34 33 32 32 33 34 34 34 33 32 32 31 31 31 31 31 32 32 32 31 31 31 31 32 32 32 33 34 35 36 37 37 37 38 38 39 39 38 38 37 36 34 32 29 29 29 30 30 29 29 30 30 31 31 31 31 30
36 36 35 35 35 35 35 34 33 32 33 33 33 33 33 32 31 31 31 30 31 31 32 32 32 31 31 31 32 32 32 32 33 34 35 36 36 36 36 37 38 38 38 38 37 35 35 33 31 30 30 30 30 30 30 31 31 31 33 33 33 33 31
36 36 35 35 35 35 35 35 33 32 33 33 33 33 32 31 31 31 31 31 31 31 31 32 32 31 31 32 32 31 32 32 33 34 35 36 36 36 36 36 36 37 37 37 36 35 34 32 30 30 31 31 31 31 32 32 31 32 34 34 34 34 31
35 35 35 35 35 35 35 35 34 33 32 32 33 32 31 31 31 31 31 31 31 31 32 32 31 30 31 31 31 30 31 32 33 34 36 36 36 36 36 36 36 36 36 37 36 35 33 32 31 31 31 30 31 32 32 32 32 33 35 34 33 33 32
35 34 34 34 34 35 35 35 34 34 33 32 32 32 31 31 30 30 30 31 31 31 32 31 30 30 30 30 30 29 30 31 32 34 35 36 36 36 36 37 37 37 36 36 35 34 34 33 31 31 30 30 30 31 32 33 33 34 35 34 33 33 33
34 34 33 33 33 34 34 34 34 34 33 32 32 32 31 30 30 30 30 30 30 30 31 30 29 29 29 29 29 29 29 30 31 33 34 35 35 36 36 36 37 37 36 36 35 35 35 34 32 30 30 30 31 32 33 33 34 34 34 33 33 33 34
32 32 32 32 32 32 32 33 34 34 33 32 31 31 30 29 29 30 30 29 29 29 29 28 28 28 28 28 28 29 29 29 30 31 32 33 33 34 35 36 36 36 36 36 36 36 35 34 31 30 31 31 31 32 33 33 33 33 33 34 34 34 35
30 30 31 30 30 31 31 32 33 34 32 31 30 30 30 28 28 28 28 28 28 27 27 27 27 27 27 27 28 28 29 29 30 31 31 32 32 33 34 34 34 35 36 36 36 35 35 33 31 30 31 31 31 32 32 33 33 34 35 35 35 35 35
29 29 30 29 29 29 29 30 32 33 32 31 30 30 29 28 27 27 28 27 27 26 26 26 26 26 27 27 27 28 28 29 29 29 30 30 31 32 33 33 34 35 36 36 35 35 34 33 32 31 31 31 31 31 32 33 34 34 34 34 33 33 33
29 28 29 29 28 28 28 29 31 32 31 31 30 29 28 27 27 27 27 26 26 25 25 25 25 25 26 26 27 27 27 28 28 28 29 30 31 32 32 32 34 35 36 36 35 35 34 33 31 31 31 31 31 32 32 33 33 33 33 31 31 32 32
28 27 27 28 28 28 27 27 29 31 31 30 30 29 28 27 27 26 26 25 25 25 25 25 25 25 25 25 26 26 27 27 27 27 28 29 30 30 31 32 33 34 35 35 35 34 34 32 30 29 29 30 30 31 31 31 32 32 31 29 30 31 30
26 26 26 26 26 26 26 26 27 29 31 31 30 29 28 27 26 26 26 25 24 24 24 24 24 25 25 25 25 26 26 26 27 27 27 28 28 29 31 32 32 33 34 34 34 34 33 31 29 28 28 28 29 30 30 30 31 31 29 28 29 29 27
25 24 24 24 24 25 25 25 25 27 29 30 30 29 28 27 26 26 25 25 24 23 23 23 23 24 24 24 25 25 25 26 26 26 26 26 28 29 30 30 31 33 34 34 33 33 32 30 28 27 27 27 27 28 29 29 30 30 28 27 29 27 24
23 23 23 23 23 23 23 24 24 26 27 28 28 28 28 26 26 26 25 24 23 23 23 23 23 23 23 23 24 24 24 24 25 25 25 26 27 28 29 29 31 32 33 33 32 32 31 29 27 26 26 26 26 27 28 28 29 29 27 27 27 25 22
22 22 22 22 22 22 23 23 24 24 25 26 27 27 27 25 25 25 25 23 23 22 22 22 22 22 22 22 22 23 23 23 24 24 25 26 27 27 28 29 30 31 31 31 31 31 30 29 26 25 25 25 25 27 27 28 28 28 27 26 26 24 20
22 22 22 22 22 22 22 22 23 23 24 25 25 26 26 25 24 25 24 23 22 22 22 21 21 21 21 21 21 21 22 22 22 23 24 25 26 27 28 28 29 29 30 30 30 30 30 28 25 24 24 24 25 26 27 27 27 27 26 25 25 23 19
22 22 22 22 22 22 22 22 22 23 24 24 25 25 25 24 24 24 23 22 22 21 21 20 20 20 20 20 20 20 20 20 21 22 23 24 25 26 26 27 27 28 29 29 29 29 29 27 25 24 24 24 24 25 26 26 26 26 25 24 23 21 18
22 22 22 22 22 22 22 22 22 22 23 23 24 24 24 24 23 23 22 22 21 20 20 19 18 18 19 18 18 18 18 19 20 20 21 22 23 24 25 26 26 27 28 28 29 29 28 27 25 23 22 22 23 24 25 25 25 25 24 22 21 20 17
22 22 22 22 22 22 22 21 21 21 21 22 23 23 24 24 23 23 22 21 20 20 19 18 17 17 17 17 16 16 17 18 18 19 20 21 22 23 24 24 25 26 27 27 28 28 28 27 25 22 21 21 21 22 23 24 24 24 24 22 19 18 16
22 22 22 22 22 22 21 21 20 20 21 21 21 22 22 22 22 22 21 20 19 19 17 16 16 16 16 15 15 15 16 16 17 18 19 20 21 21 22 23 24 25 25 26 27 27 27 26 24 22 20 19 19 20 21 23 23 23 23 22 19 16 15
22 22 22 22 22 21 21 20 20 20 21 21 21 21 21 21 21 21 21 19 18 17 16 16 15 15 15 14 14 14 15 15 16 17 17 18 19 20 21 22 23 24 24 25 26 26 26 26 24 21 19 18 18 18 20 21 21 21 22 22 19 15 13
22 22 22 22 22 21 21 21 21 21 21 21 21 21 21 21 21 20 20 19 18 16 16 15 15 14 14 13 13 13 13 14 14 15 16 17 18 19 20 21 22 23 24 25 25 26 26 26 24 22 19 18 17 17 18 19 20 20 21 21 20 16 14
23 23 22 22 22 22 21 21 21 20 20 21 21 21 21 21 21 20 19 18 17 16 15 15 14 14 13 12 12 12 12 12 13 14 14 15 16 18 19 20 21 22 23 24 25 25 25 25 24 23 20 18 16 16 17 17 18 19 20 20 20 17 15
23 23 23 22 22 21 22 22 21 19 19 20 20 21 21 21 20 20 19 18 17 16 15 14 13 13 12 12 11 11 11 11 11 12 13 14 15 16 18 19 20 21 23 23 24 25 25 24 24 23 21 19 16 16 16 16 17 18 18 19 19 18 16
22 23 22 22 21 21 21 21 20 19 19 19 20 20 20 20 19 19 19 18 17 16 15 14 13 12 11 11 11 10 10 10 10 11 12 13 14 16 17 18 20 21 22 23 23 24 24 24 23 23 21 19 17 15 15 15 15 16 17 17 17 17 17
21 22 22 21 21 20 20 20 19 19 19 19 19 19 18 19 19 19 18 18 16 15 14 13 12 12 11 11 10 9 9 9 9 10 11 12 13 15 16 18 19 20 21 22 22 23 23 23 23 22 21 20 18 16 15 15 15 15 15 15 16 16 16
18 19 19 20 20 20 19 18 18 18 18 18 18 17 17 17 18 18 18 17 16 14 13 13 12 12 11 10 9 8 8 8 8 9 10 11 12 14 15 17 18 19 20 21 22 22 22 22 22 22 21 20 19 16 14 14 14 14 14 14 15 14 14
14 14 15 16 17 18 18 17 16 17 18 18 17 17 17 16 16 16 17 16 15 14 13 13 12 12 11 10 8 7 7 8 8 8 9 10 12 13 15 16 17 19 20 20 21 21 21 22 21 21 21 20 19 17 15 14 14 14 14 14 14 14 13
11 10 11 12 13 15 16 16 15 16 17 17 17 17 16 16 16 16 16 15 14 14 13 13 12 12 11 9 8 7 7 7 7 8 9 10 11 12 14 15 17 18 19 19 20 20 20 21 20 20 20 20 19 18 16 14 13 13 13 13 13 13 13
Wind_Direction
269 268 267 265 264 263 263 262 261 260 261 262 262 264 268 271 275 278 281 283 284 285 287 289 291 292 294 297 299 301 304 306 308 310 312 313 314 315 315 315 315 315 317 318 317 315 314 312 309 307 304 303 303 304 306 306 305 305 303 300 295 287 279
270 268 267 265 263 263 263 263 261 260 261 261 261 263 266 269 273 277 279 281 283 285 287 289 290 292 294 296 298 300 303 305 307 310 312 313 314 315 315 315 315 315 317 318 319 317 315 313 310 306 304 303 302 302 304 305 304 304 302 300 295 288 279
271 270 268 266 264 263 263 262 261 260 260 260 260 262 265 268 271 275 278 280 282 284 286 288 290 291 293 295 297 300 303 305 307 310 311 312 313 314 315 315 315 315 316 318 319 318 316 314 312 307 304 302 301 301 302 303 303 302 302 300 296 289 281
271 270 269 267 264 262 262 262 261 260 260 259 259 261 264 267 270 273 276 279 281 282 285 287 289 291 293 295 297 299 302 305 307 310 311 312 314 314 315 316 315 315 316 317 319 319 317 315 313 308 305 302 300 300 300 302 303 302 301 300 296 290 283
270 269 269 268 265 262 261 261 260 260 259 258 258 260 263 266 269 272 275 278 280 281 283 286 289 291 293 294 296 298 301 304 307 309 311 312 314 315 315 316 316 315 316 317 318 319 318 316 314 309 305 302 299 299 301 303 303 302 301 300 297 292 286
270 269 268 268 266 262 261 262 261 260 260 259 258 260 263 266 269 271 273 276 279 281 283 286 288 291 293 294 295 298 301 304 306 308 311 312 314 315 315 316 316 316 317 318 318 318 318 317 314 310 305 302 301 301 303 304 303 302 301 300 298 295 290
270 268 268 267 266 262 260 261 261 261 260 259 259 260 262 265 268 270 272 275 278 280 283 285 288 290 292 293 295 298 301 303 306 308 310 312 313 314 315 316 317 318 318 318 318 318 318 317 314 310 305 303 303 303 304 304 303 302 302 301 300 298 294
270 268 267 266 265 263 260 260 260 260 260 259 259 260 262 264 266 268 271 274 277 280 282 285 287 289 291 293 295 298 300 303 306 308 310 312 313 314 315 316 317 318 319 319 319 318 318 317 314 310 306 305 306 305 305 305 304 302 302 302 301 299 295
269 268 266 265 265 263 260 259 259 260 259 259 260 261 262 264 265 266 269 273 277 280 282 283 285 288 291 293 295 297 299 301 304 307 310 312 313 314 315 316 317 319 320 320 320 319 318 317 313 310 308 306 306 306 306 307 305 302 302 302 301 299 296
269 267 265 264 263 262 260 258 258 258 258 258 260 261 262 263 263 265 268 272 276 279 281 282 284 287 290 292 294 296 299 301 304 307 309 312 313 314 315 316 318 319 320 320 320 319 318 317 313 310 309 307 306 307 307 307 306 303 303 302 300 299 296
268 267 265 263 262 261 260 258 256 255 256 257 259 260 262 263 263 264 268 272 275 278 280 282 284 287 289 291 294 297 299 301 304 307 309 310 312 313 315 316 318 319 320 320 320 319 318 316 313 310 309 308 307 308 308 307 306 304 303 302 300 298 296
267 266 265 263 262 261 261 259 255 253 254 257 258 259 262 263 263 265 268 271 275 277 280 282 283 286 289 291 294 297 299 302 304 306 308 310 311 312 314 315 317 319 320 321 321 320 317 315 313 311 310 309 308 309 308 307 306 305 303 301 299 297 295
266 265 264 263 262 261 261 259 254 252 253 256 257 258 260 262 263 265 268 271 274 277 279 281 282 285 289 291 294 297 300 303 306 307 309 310 311 313 314 315 317 318 319 320 321 320 317 315 314 311 309 308 308 308 308 308 307 306 303 301 299 297 295
266 265 264 264 263 262 260 257 253 251 251 254 256 257 259 262 265 267 269 271 274 276 278 279 282 285 289 292 294 297 300 304 306 308 310 311 312 313 315 316 318 319 320 320 321 319 317 315 313 311 309 308 308 308 308 309 309 308 306 304 301 299 297
266 266 265 264 264 263 261 257 252 250 250 251 254 257 259 262 265 268 269 271 273 275 277 278 281 284 288 292 294 297 300 304 307 308 310 311 312 314 316 317 319 321 321 321 320 319 318 316 314 311 310 309 309 309 310 310 309 309 307 306 304 301 299
266 266 265 265 264 263 261 257 252 249 249 250 252 256 258 260 263 266 269 270 271 274 276 278 281 285 288 291 294 297 300 304 307 309 309 311 312 315 317 318 320 321 321 321 320 320 320 317 314 312 311 310 310 311 312 312 311 312 311 309 307 305 303
265 266 265 265 264 263 260 257 253 249 249 249 250 254 257 259 261 265 268 269 270 272 275 277 280 284 288 291 294 298 301 304 307 309 309 311 313 315 317 319 321 322 321 321 322 322 321 318 315 313 312 312 313 314 315 315 316 317 316 313 311 309 306
264 265 265 264 263 262 260 257 253 249 249 249 250 252 256 259 261 264 266 267 269 272 274 277 280 283 287 291 294 298 301 304 307 308 310 312 314 317 319 321 322 323 323 324 324 323 323 320 317 315 314 314 316 317 318 319 320 320 319 317 315 314 309
263 263 263 264 263 261 259 257 253 250 250 250 250 252 255 258 259 262 264 266 268 271 274 277 280 283 286 290 294 298 301 304 307 309 311 313 315 318 320 322 323 325 326 327 326 326 325 323 319 316 316 318 319 321 322 322 322 322 321 320 318 317 312
262 261 262 263 263 261 260 257 254 251 250 251 250 250 252 255 257 259 262 264 266 270 273 277 280 283 286 290 294 297 300 304 307 309 311 314 317 319 321 323 326 327 328 328 328 328 327 325 321 319 319 321 323 324 325 325 324 324 323 321 321 321 313
262 261 260 261 262 262 261 258 256 253 251 250 250 250 251 253 255 258 261 263 265 269 272 276 280 283 287 291 294 296 300 304 307 309 311 315 317 319 321 325 327 328 329 329 330 330 328 326 323 322 322 324 326 328 329 328 328 328 326 324 324 324 316
262 261 260 260 261 262 261 260 257 255 252 251 250 250 250 252 253 256 259 262 264 268 271 275 280 283 286 291 293 296 300 304 307 309 313 316 318 321 324 327 328 329 331 331 332 332 330 328 325 324 326 327 329 331 332 332 332 332 330 327 328 327 320
262 261 260 260 261 262 262 260 258 256 254 251 250 249 249 250 252 253 257 260 263 266 271 275 279 283 286 290 292 295 300 305 308 311 314 317 320 324 326 328 330 331 333 333 333 333 332 329 327 327 327 329 331 333 335 335 336 336 333 332 333 334 327
260 259 259 259 260 261 262 261 258 256 254 252 249 247 247 249 250 251 255 259 262 265 270 275 278 282 285 288 292 296 302 306 309 312 316 319 323 326 327 329 332 334 335 335 335 335 333 332 330 329 329 330 333 335 337 338 340 340 338 336 338 341 338
258 257 258 259 260 261 261 260 258 255 254 252 249 246 246 248 249 250 252 257 261 265 269 273 275 280 285 288 292 297 302 305 309 313 318 322 325 327 329 332 335 336 337 337 337 336 336 335 333 331 331 332 334 337 340 342 344 345 344 343 344 348 349
256 256 257 258 259 261 261 259 256 254 253 252 250 247 245 246 248 249 250 254 259 262 266 270 274 280 284 287 291 296 301 305 310 315 319 323 326 329 333 336 337 338 339 340 339 339 339 338 336 334 333 334 337 340 344 346 348 350 352 351 350 354 358
256 255 257 258 258 260 261 259 257 255 253 251 250 248 245 245 246 248 249 251 255 259 264 269 275 279 283 286 290 296 301 305 311 316 320 324 328 332 336 339 341 342 342 343 342 342 342 342 340 338 337 338 339 343 347 351 352 354 357 358 356 357 2
256 255 256 257 257 258 259 257 257 257 254 249 248 247 244 243 245 246 247 248 251 257 263 269 274 277 280 283 288 294 300 306 311 317 321 326 331 336 339 342 344 345 346 346 347 346 347 348 346 344 342 342 342 345 350 355 356 357 0 3 3 3 4
258 256 256 255 255 256 257 256 257 258 253 248 246 245 243 242 242 244 245 245 246 253 261 267 271 273 275 279 284 291 299 306 313 319 324 329 334 338 342 344 346 348 349 350 351 351 352 352 352 350 348 346 345 347 351 357 0 1 3 6 8 10 9
258 258 256 255 254 254 254 255 258 257 250 246 245 243 242 240 239 241 243 241 243 250 257 262 266 268 270 274 278 286 296 304 313 320 325 330 336 341 344 346 349 350 351 352 353 354 355 356 356 356 354 352 350 349 352 358 3 5 7 8 11 14 16
259 259 257 255 254 253 252 253 255 253 247 244 244 243 241 239 238 238 238 237 240 248 253 257 260 262 265 269 274 281 293 303 312 319 324 330 337 342 345 348 350 351 352 354 355 356 357 358 359 359 359 358 355 353 354 358 4 8 11 11 13 17 20
261 261 259 256 253 251 251 251 252 249 245 243 243 241 240 238 237 235 234 234 238 245 249 252 255 256 258 263 269 278 290 302 311 318 324 331 339 344 346 349 350 352 353 355 356 357 358 359 1 2 2 2 1 359 358 360 3 9 14 15 16 19 23
263 262 259 255 250 246 246 248 247 245 243 242 240 238 236 236 236 233 231 231 235 240 244 247 249 249 251 256 263 274 288 300 309 317 324 332 339 344 346 348 350 352 354 356 357 359 0 1 2 4 5 5 5 4 3 3 5 9 14 18 19 19 22
267 263 258 252 246 240 239 242 242 239 238 238 236 232 230 231 232 231 228 229 234 237 239 241 242 243 246 251 258 270 285 296 306 315 324 332 339 343 346 348 351 353 354 356 358 360 2 3 4 6 7 8 8 7 6 6 7 9 13 19 22 21 22
272 267 258 248 241 234 232 235 238 234 232 232 231 227 224 225 228 227 226 229 233 234 235 235 235 237 241 245 253 267 281 293 304 315 324 332 338 343 346 349 351 353 354 356 358 0 2 4 6 7 9 10 10 10 10 9 9 9 12 17 22 24 24
275 268 255 242 237 231 227 229 233 231 227 226 225 221 218 220 223 223 223 224 227 228 229 229 231 234 237 240 249 264 278 290 303 314 323 330 336 342 346 349 351 352 354 355 358 360 2 5 7 8 9 11 12 12 12 11 11 11 12 15 20 24 25